This is the latest recevied weather packets stored in our database for station/object OE5OVL-13. If no packets are shown the sender has not sent any weather packets the latest 10 day(s).
| Time | Temp. | Humidity | Pressure | Rain* | Wind** | Luminosity | Snow |
|---|---|---|---|---|---|---|---|
| 1777651384 | 32.78° C | 19% | 743.8 hPa | 0 mm | - | - | - |
| 1777650472 | 33.33° C | 18% | 744.5 hPa | 0 mm | - | - | - |
| 1777649560 | 33.33° C | 19% | 744.2 hPa | 0 mm | - | - | - |
| 1777648649 | 32.78° C | 19% | 743.7 hPa | 0 mm | - | - | - |
| 1777647737 | 32.22° C | 21% | 743.2 hPa | 0 mm | - | - | - |
| 1777646825 | 30.56° C | 22% | 741.3 hPa | 0 mm | - | - | - |
| 1777645913 | 31.11° C | 22% | 741.9 hPa | 0 mm | - | - | - |
| 1777645002 | 30° C | 23% | 740.8 hPa | 0 mm | - | - | - |
| 1777644090 | 29.44° C | 24% | 739.7 hPa | 0 mm | - | - | - |
| 1777643178 | 28.33° C | 23% | 738.9 hPa | 0 mm | - | - | - |
| 1777642266 | 27.78° C | 24% | 738.2 hPa | 0 mm | - | - | - |
| 1777641354 | 26.67° C | 27% | 736.9 hPa | 0 mm | - | - | - |
| 1777638619 | 23.33° C | 29% | 733.1 hPa | 0 mm | - | - | - |
| 1777637707 | 23.33° C | 29% | 732.5 hPa | 0 mm | - | - | - |
| 1777636796 | 22.22° C | 31% | 731.6 hPa | 0 mm | - | - | - |
| 1777635884 | 22.22° C | 31% | 731.4 hPa | 0 mm | - | - | - |
| 1777634972 | 21.67° C | 33% | 730.7 hPa | 0 mm | - | - | - |
| 1777634061 | 20.56° C | 33% | 729.5 hPa | 0 mm | - | - | - |
| 1777633149 | 20° C | 35% | 728.7 hPa | 0 mm | - | - | - |
| 1777632237 | 18.89° C | 36% | 727.8 hPa | 0 mm | - | - | - |
| 1777631325 | 18.33° C | 35% | 726.9 hPa | 0 mm | - | - | - |
| 1777630414 | 17.22° C | 36% | 725.9 hPa | 0 mm | - | - | - |
| 1777629502 | 17.22° C | 38% | 725.7 hPa | 0 mm | - | - | - |
| 1777628590 | 16.11° C | 40% | 724.6 hPa | 0 mm | - | - | - |
| 1777627678 | 15.56° C | 40% | 724.2 hPa | 0 mm | - | - | - |
* Rain latest hour (hover to see other rain measurements)
** Current wind speed in m/s (hover to see current wind gust speed)